一网星座-0682星 (ONEWEB-0682)

导读 | 豆包AI

ONEWEB-0682是英国OneWeb星座的低轨宽带通信卫星,于2023年5月20日发射入轨。该卫星隶属于OneWeb一代星座,重量约147.5公斤,运行于近地轨道,配备Ku波段相控阵天线,主要为全球提供高速卫星互联网接入服务。作为OneWeb全球组网的重要组成部分,它进一步完善了星座覆盖能力,助力OneWeb实现全球宽带服务部署,推动卫星通信产业发展。

Basic Information
目录编号:
56718
目录名称:
ONEWEB-0682
国际标识:
2023-068J
轨道中心:
EARTH
卫星名称:
一网星座-0682星
卫星全名:
一网星座-0682星 (ONEWEB-0682)
卫星状态:
在轨 (已飞行1029 天)
发射日期:
2023-05-20 UTC
国别 :
英国 (GB)
星等 :
--
Orbit Information
数据来源 国际轨道数据 AOE轨道数据
星历时间 2026-03-14T07:05:47+0800
16小时前
查看轨道信息
2026-03-12T16:00:00+0800
2天前
查看轨道信息
半长轴 7579.85km 7579.903km
偏心率 0.0002307 0.0001829
轨道倾角 87.893° 87.896°
近地点辐角 74.449° 72.141°
升交点赤经 278.207° 278.531°
平近点角 285.689° 137.358°
近地点 1199.964km 1200.379km
远地点 1203.462km 1203.153km
周期 109.459分钟 109.460分钟
每日圈数 13.155637 13.155499
Detailed Information
平衡模式:
三轴稳定
覆盖范围:
全球
运营商:
一网卫星公司
运营商所在国:
英国
制造商(研发单位):
一网卫星公司
制造商所在国:
英国
使用方式:
暂无
Satellite Introduction
OneWeb卫星网络由648颗重约125公斤的微型卫星组成,运行在1200公里的轨道上。 每颗卫星都能够提供至少每秒8千兆位的吞吐量,以使用其高吞吐量的Ku频段有效载荷为家庭和移动平台提供互联网接入。该卫星仍在工作。
2D Orbit Map
3D Orbit Map
Orbit Altitude Analysis Chart
Orbit Inclination Analysis Chart
Orbit Comprehensive Analysis Chart
View Comprehensive Chart